Time,TemperatureF,DewpointF,PressureIn,WindDirection,WindDirectionDegrees,WindSpeedMPH,WindSpeedGustMPH,Humidity,HourlyPrecipIn,Conditions,Clouds,dailyrainin,SoftwareType,DateUTC
2013-01-28 00:03:00,13.6,-5.0,30.43,NW,319,5.0,5.0,44,0.00,,,0.00,weatherlink.com 1.10,2013-01-28 05:03:00,
2013-01-28 00:18:00,14.5,-5.0,30.42,NW,309,2.0,6.0,41,0.00,,,0.00,weatherlink.com 1.10,2013-01-28 05:18:00,
2013-01-28 00:34:00,14.5,-6.0,30.42,WNW,287,2.0,7.0,40,0.00,,,0.00,weatherlink.com 1.10,2013-01-28 05:34:00,
2013-01-28 00:48:00,14.0,-5.0,30.42,WNW,299,1.0,5.0,42,0.00,,,0.00,weatherlink.com 1.10,2013-01-28 05:48:00,
2013-01-28 01:03:00,13.6,-5.0,30.42,NNW,334,0.0,3.0,43,0.00,,,0.00,weatherlink.com 1.10,2013-01-28 06:03:00,
2013-01-28 01:19:00,13.4,-5.0,30.42,NW,314,2.0,5.0,43,0.00,,,0.00,weatherlink.com 1.10,2013-01-28 06:19:00,
2013-01-28 01:34:00,13.5,-5.0,30.42,WNW,289,1.0,6.0,43,0.00,,,0.00,weatherlink.com 1.10,2013-01-28 06:34:00,
2013-01-28 01:48:00,13.6,-5.0,30.43,WNW,290,1.0,4.0,44,0.00,,,0.00,weatherlink.com 1.10,2013-01-28 06:48:00,
2013-01-28 02:04:00,13.2,-5.0,30.44,NW,314,0.0,3.0,45,0.00,,,0.00,weatherlink.com 1.10,2013-01-28 07:04:00,
2013-01-28 02:19:00,13.0,-4.0,30.43,NW,319,1.0,4.0,46,0.00,,,0.00,weatherlink.com 1.10,2013-01-28 07:19:00,
2013-01-28 02:34:00,13.0,-5.0,30.42,NW,321,1.0,4.0,44,0.00,,,0.00,weatherlink.com 1.10,2013-01-28 07:34:00,
2013-01-28 02:49:00,13.2,-5.0,30.41,NNE,32,2.0,5.0,44,0.00,,,0.00,weatherlink.com 1.10,2013-01-28 07:49:00,
2013-01-28 03:04:00,13.3,-5.0,30.40,NNE,20,3.0,5.0,43,0.00,,,0.00,weatherlink.com 1.10,2013-01-28 08:04:00,
2013-01-28 03:19:00,13.1,-6.0,30.40,NNE,30,0.0,4.0,43,0.00,,,0.00,weatherlink.com 1.10,2013-01-28 08:19:00,
2013-01-28 03:34:00,13.3,-5.0,30.41,NW,314,2.0,4.0,43,0.00,,,0.00,weatherlink.com 1.10,2013-01-28 08:34:00,
2013-01-28 03:49:00,13.6,-6.0,30.40,North,354,2.0,5.0,42,0.00,,,0.00,weatherlink.com 1.10,2013-01-28 08:49:00,
2013-01-28 04:04:00,13.0,-6.0,30.41,WNW,293,1.0,3.0,43,0.00,,,0.00,weatherlink.com 1.10,2013-01-28 09:04:00,
2013-01-28 04:19:00,12.9,-5.0,30.40,NW,324,1.0,4.0,45,0.00,,,0.00,weatherlink.com 1.10,2013-01-28 09:19:00,
2013-01-28 04:34:00,13.0,-5.0,30.40,NW,326,1.0,4.0,44,0.00,,,0.00,weatherlink.com 1.10,2013-01-28 09:34:00,
2013-01-28 04:50:00,12.9,-5.0,30.39,NW,314,2.0,3.0,44,0.00,,,0.00,weatherlink.com 1.10,2013-01-28 09:50:00,
2013-01-28 05:04:00,13.5,-5.0,30.38,North,5,1.0,5.0,43,0.00,,,0.00,weatherlink.com 1.10,2013-01-28 10:04:00,
2013-01-28 05:20:00,13.7,-6.0,30.39,North,356,1.0,5.0,42,0.00,,,0.00,weatherlink.com 1.10,2013-01-28 10:20:00,
2013-01-28 05:35:00,14.2,-5.0,30.38,NW,321,3.0,4.0,42,0.00,,,0.00,weatherlink.com 1.10,2013-01-28 10:35:00,
2013-01-28 05:50:00,14.4,-5.0,30.38,NW,315,3.0,5.0,41,0.00,,,0.00,weatherlink.com 1.10,2013-01-28 10:50:00,
2013-01-28 06:05:00,14.4,-5.0,30.38,NW,308,2.0,4.0,42,0.00,,,0.00,weatherlink.com 1.10,2013-01-28 11:05:00,
2013-01-28 06:20:00,14.9,-6.0,30.38,NW,326,4.0,4.0,40,0.00,,,0.00,weatherlink.com 1.10,2013-01-28 11:20:00,
2013-01-28 06:35:00,15.2,-5.0,30.38,NNW,346,0.0,4.0,40,0.00,,,0.00,weatherlink.com 1.10,2013-01-28 11:35:00,
2013-01-28 06:50:00,15.4,-5.0,30.38,NNW,340,0.0,3.0,40,0.00,,,0.00,weatherlink.com 1.10,2013-01-28 11:50:00,
2013-01-28 07:05:00,15.1,-1.0,30.38,SE,139,0.0,1.0,49,0.00,,,0.00,weatherlink.com 1.10,2013-01-28 12:05:00,
2013-01-28 07:20:00,14.2,0.0,30.38,SE,143,0.0,1.0,53,0.00,,,0.00,weatherlink.com 1.10,2013-01-28 12:20:00,
2013-01-28 07:35:00,14.1,2.0,30.38,East,85,1.0,1.0,58,0.00,,,0.00,weatherlink.com 1.10,2013-01-28 12:35:00,
2013-01-28 07:51:00,14.4,1.0,30.38,SSE,149,0.0,1.0,55,0.00,,,0.00,weatherlink.com 1.10,2013-01-28 12:51:00,
2013-01-28 08:05:00,14.9,1.0,30.38,SSE,152,0.0,1.0,55,0.00,,,0.00,weatherlink.com 1.10,2013-01-28 13:05:00,
2013-01-28 08:20:00,15.2,2.0,30.38,SE,142,0.0,1.0,56,0.00,,,0.00,weatherlink.com 1.10,2013-01-28 13:20:00,
2013-01-28 08:35:00,15.4,3.0,30.38,SE,145,0.0,1.0,57,0.00,,,0.00,weatherlink.com 1.10,2013-01-28 13:35:00,
2013-01-28 08:51:00,15.6,2.0,30.38,SE,145,0.0,1.0,54,0.00,,,0.00,weatherlink.com 1.10,2013-01-28 13:51:00,
2013-01-28 09:09:00,16.8,1.0,30.37,SE,145,0.0,0.0,51,0.00,,,0.00,weatherlink.com 1.10,2013-01-28 14:09:00,
2013-01-28 09:21:00,18.2,1.0,30.38,SE,140,0.0,1.0,46,0.00,,,0.00,weatherlink.com 1.10,2013-01-28 14:21:00,
2013-01-28 09:36:00,19.4,-1.0,30.37,NNW,340,0.0,0.0,41,0.00,,,0.00,weatherlink.com 1.10,2013-01-28 14:36:00,
2013-01-28 09:51:00,20.3,0.0,30.37,SW,236,1.0,2.0,41,0.00,,,0.00,weatherlink.com 1.10,2013-01-28 14:51:00,
2013-01-28 10:06:00,20.2,0.0,30.37,WSW,240,0.0,1.0,41,0.00,,,0.00,weatherlink.com 1.10,2013-01-28 15:06:00,
2013-01-28 10:21:00,20.1,-2.0,30.37,NW,309,0.0,2.0,38,0.00,,,0.00,weatherlink.com 1.10,2013-01-28 15:21:00,
2013-01-28 10:36:00,21.1,0.0,30.35,West,273,0.0,1.0,39,0.00,,,0.00,weatherlink.com 1.10,2013-01-28 15:36:00,
2013-01-28 10:51:00,22.0,2.0,30.34,SE,142,0.0,2.0,41,0.00,,,0.00,weatherlink.com 1.10,2013-01-28 15:51:00,
2013-01-28 11:06:00,22.1,3.0,30.34,SE,145,1.0,1.0,44,0.00,,,0.00,weatherlink.com 1.10,2013-01-28 16:06:00,
2013-01-28 11:21:00,22.9,2.0,30.34,SE,146,0.0,2.0,41,0.00,,,0.00,weatherlink.com 1.10,2013-01-28 16:21:00,
2013-01-28 11:36:00,23.1,4.0,30.32,SE,139,1.0,1.0,44,0.00,,,0.00,weatherlink.com 1.10,2013-01-28 16:36:00,
2013-01-28 11:52:00,23.4,4.0,30.30,SSE,159,1.0,2.0,44,0.00,,,0.00,weatherlink.com 1.10,2013-01-28 16:52:00,
2013-01-28 12:06:00,23.6,4.0,30.29,SE,132,0.0,1.0,43,0.00,,,0.00,weatherlink.com 1.10,2013-01-28 17:06:00,
2013-01-28 12:22:00,23.8,2.0,30.29,SSE,160,1.0,1.0,39,0.00,,,0.00,weatherlink.com 1.10,2013-01-28 17:22:00,
2013-01-28 12:37:00,24.0,3.0,30.28,SSE,148,0.0,1.0,40,0.00,,,0.00,weatherlink.com 1.10,2013-01-28 17:37:00,
2013-01-28 12:52:00,23.3,8.0,30.26,WSW,255,1.0,2.0,51,0.00,,,0.00,weatherlink.com 1.10,2013-01-28 17:52:00,
2013-01-28 13:07:00,22.3,12.0,30.25,SSE,155,1.0,1.0,64,0.00,,,0.00,weatherlink.com 1.10,2013-01-28 18:07:00,
2013-01-28 13:22:00,21.5,14.0,30.23,SE,131,1.0,2.0,74,0.00,,,0.00,weatherlink.com 1.10,2013-01-28 18:22:00,
2013-01-28 13:37:00,21.4,16.0,30.22,SE,139,1.0,2.0,78,0.00,,,0.00,weatherlink.com 1.10,2013-01-28 18:37:00,
2013-01-28 13:52:00,20.8,16.0,30.21,SE,138,0.0,2.0,83,0.00,,,0.00,weatherlink.com 1.10,2013-01-28 18:52:00,
2013-01-28 14:07:00,20.9,17.0,30.20,East,100,1.0,2.0,84,0.00,,,0.00,weatherlink.com 1.10,2013-01-28 19:07:00,
2013-01-28 14:22:00,21.1,17.0,30.20,East,88,0.0,1.0,85,0.00,,,0.00,weatherlink.com 1.10,2013-01-28 19:22:00,
2013-01-28 14:37:00,21.0,18.0,30.19,ESE,123,1.0,1.0,87,0.00,,,0.00,weatherlink.com 1.10,2013-01-28 19:37:00,
2013-01-28 14:52:00,20.9,18.0,30.19,ESE,119,0.0,1.0,87,0.00,,,0.00,weatherlink.com 1.10,2013-01-28 19:52:00,
2013-01-28 15:07:00,20.8,18.0,30.18,ESE,120,0.0,1.0,88,0.00,,,0.00,weatherlink.com 1.10,2013-01-28 20:07:00,
2013-01-28 15:22:00,20.8,18.0,30.18,ESE,120,0.0,1.0,89,0.00,,,0.00,weatherlink.com 1.10,2013-01-28 20:22:00,
2013-01-28 15:38:00,20.9,19.0,30.17,ESE,119,1.0,1.0,90,0.00,,,0.00,weatherlink.com 1.10,2013-01-28 20:38:00,
2013-01-28 15:53:00,20.8,19.0,30.16,SE,125,1.0,1.0,91,0.00,,,0.00,weatherlink.com 1.10,2013-01-28 20:53:00,
2013-01-28 16:08:00,20.8,19.0,30.16,SE,132,0.0,1.0,92,0.00,,,0.00,weatherlink.com 1.10,2013-01-28 21:08:00,
2013-01-28 16:23:00,20.7,19.0,30.16,SE,134,0.0,3.0,92,0.00,,,0.00,weatherlink.com 1.10,2013-01-28 21:23:00,
2013-01-28 16:38:00,20.5,19.0,30.15,ESE,123,0.0,2.0,92,0.00,,,0.00,weatherlink.com 1.10,2013-01-28 21:38:00,
2013-01-28 16:53:00,20.4,19.0,30.14,SE,133,1.0,2.0,92,0.00,,,0.00,weatherlink.com 1.10,2013-01-28 21:53:00,
2013-01-28 17:08:00,20.2,19.0,30.14,SE,143,0.0,2.0,93,0.00,,,0.00,weatherlink.com 1.10,2013-01-28 22:08:00,
2013-01-28 17:23:00,20.1,18.0,30.12,ESE,110,1.0,3.0,93,0.00,,,0.00,weatherlink.com 1.10,2013-01-28 22:23:00,
2013-01-28 17:38:00,20.0,18.0,30.13,South,176,0.0,1.0,92,0.00,,,0.00,weatherlink.com 1.10,2013-01-28 22:38:00,
2013-01-28 17:54:00,20.0,18.0,30.11,ESE,120,0.0,2.0,92,0.00,,,0.00,weatherlink.com 1.10,2013-01-28 22:54:00,
2013-01-28 18:08:00,19.9,18.0,30.11,ESE,104,0.0,1.0,92,0.00,,,0.00,weatherlink.com 1.10,2013-01-28 23:08:00,
2013-01-28 18:24:00,19.9,18.0,30.11,East,96,0.0,1.0,93,0.00,,,0.00,weatherlink.com 1.10,2013-01-28 23:24:00,
2013-01-28 18:38:00,19.9,18.0,30.11,East,96,0.0,0.0,93,0.00,,,0.00,weatherlink.com 1.10,2013-01-28 23:38:00,
2013-01-28 18:54:00,19.8,18.0,30.11,East,96,0.0,1.0,93,0.00,,,0.00,weatherlink.com 1.10,2013-01-28 23:54:00,
2013-01-28 19:09:00,19.8,18.0,30.11,NE,44,0.0,1.0,92,0.00,,,0.00,weatherlink.com 1.10,2013-01-29 00:09:00,
2013-01-28 19:24:00,19.8,18.0,30.10,NE,44,0.0,0.0,92,0.00,,,0.00,weatherlink.com 1.10,2013-01-29 00:24:00,
2013-01-28 19:39:00,19.7,18.0,30.09,NE,44,0.0,0.0,93,0.00,,,0.00,weatherlink.com 1.10,2013-01-29 00:39:00,
2013-01-28 19:54:00,19.6,18.0,30.08,NE,44,0.0,1.0,93,0.00,,,0.00,weatherlink.com 1.10,2013-01-29 00:54:00,
2013-01-28 20:09:00,19.6,18.0,30.07,NE,44,0.0,1.0,93,0.00,,,0.00,weatherlink.com 1.10,2013-01-29 01:09:00,
2013-01-28 20:24:00,19.6,18.0,30.07,ENE,71,0.0,1.0,93,0.00,,,0.00,weatherlink.com 1.10,2013-01-29 01:24:00,
2013-01-28 20:39:00,19.6,18.0,30.06,East,84,1.0,1.0,93,0.00,,,0.00,weatherlink.com 1.10,2013-01-29 01:39:00,
2013-01-28 20:54:00,19.5,18.0,30.06,NE,56,0.0,1.0,93,0.00,,,0.00,weatherlink.com 1.10,2013-01-29 01:54:00,
2013-01-28 21:09:00,19.5,18.0,30.06,ENE,57,0.0,1.0,93,0.00,,,0.00,weatherlink.com 1.10,2013-01-29 02:09:00,
2013-01-28 21:24:00,19.5,18.0,30.05,NE,52,0.0,1.0,93,0.00,,,0.00,weatherlink.com 1.10,2013-01-29 02:24:00,
2013-01-28 21:39:00,19.5,18.0,30.05,NE,53,0.0,1.0,93,0.00,,,0.00,weatherlink.com 1.10,2013-01-29 02:39:00,
2013-01-28 21:54:00,19.4,18.0,30.04,NE,52,0.0,0.0,93,0.00,,,0.00,weatherlink.com 1.10,2013-01-29 02:54:00,
2013-01-28 22:09:00,19.4,18.0,30.04,NE,53,0.0,1.0,93,0.00,,,0.00,weatherlink.com 1.10,2013-01-29 03:09:00,
2013-01-28 22:24:00,19.4,18.0,30.04,NE,52,1.0,1.0,93,0.00,,,0.00,weatherlink.com 1.10,2013-01-29 03:24:00,
2013-01-28 22:39:00,19.4,18.0,30.04,NNE,32,0.0,1.0,93,0.00,,,0.00,weatherlink.com 1.10,2013-01-29 03:39:00,
2013-01-28 22:54:00,19.4,18.0,30.04,NNE,24,0.0,1.0,93,0.00,,,0.00,weatherlink.com 1.10,2013-01-29 03:54:00,
2013-01-28 23:09:00,19.4,18.0,30.03,NE,53,1.0,1.0,93,0.00,,,0.00,weatherlink.com 1.10,2013-01-29 04:09:00,
2013-01-28 23:24:00,19.4,18.0,30.04,NE,53,0.0,1.0,93,0.00,,,0.00,weatherlink.com 1.10,2013-01-29 04:24:00,
2013-01-28 23:39:00,19.4,18.0,30.03,NE,53,0.0,1.0,93,0.00,,,0.00,weatherlink.com 1.10,2013-01-29 04:39:00,
2013-01-28 23:54:00,19.6,18.0,30.03,NE,51,1.0,1.0,93,0.00,,,0.00,weatherlink.com 1.10,2013-01-29 04:54:00,